[[{"header":{"parameterUnit":"m.s-1","parameterCategory":1,"la1":30.2991,"la2":30.254,"lo1":-89.0895,"lo2":-89.0444,"dy":0.0017,"dx":0.0017,"nx":28,"ny":28,"refTime":"2025-06-20T09:00:00:Z","depth":0,"parameterNumber":2,"parameterNumberName":"U-component_of_WINDS"},"data":[0,0,0,0,0,0,0,0,0,0,0,0,0,0,0,0,0,0,0,0,0,0,0,0,0,0,0,0,0,0,0,0,0,0,0,0,0,0,0,0,0,0,0,0,0,0,0,0,0,0,0,0,0,0,0,0,0,0,-0.3462,-0.3461,0,-0.3362,-0.3361,-0.336,-0.3309,-0.3309,-0.3309,-0.3309,-0.3203,-0.32,-0.3198,0,0,0,0,0,0,0,0,0,0,0,0,0,-0.3608,-0.3606,-0.3462,-0.3461,-0.346,-0.3362,-0.3361,-0.336,-0.3309,-0.3309,-0.3309,-0.3309,-0.3204,-0.3201,-0.3197,0,0,0,0,0,0,0,0,0,0,0,0,0,-0.353,-0.3605,-0.3463,-0.3423,-0.3419,-0.3363,-0.3361,-0.3359,-0.3309,-0.3309,-0.3309,-0.3309,-0.3205,-0.3201,-0.3197,-0.3172,0,0,-0.3184,-0.3182,0,0,0,0,0,0,0,0,-0.3535,-0.3525,-0.343,-0.3426,-0.342,-0.3348,-0.3374,-0.3296,-0.3309,-0.3351,-0.3309,-0.3309,-0.3251,-0.3243,-0.3224,-0.3167,-0.3162,-0.3184,-0.3181,-0.3179,-0.3178,0,0,0,0,0,0,0,-0.354,-0.3529,-0.3423,-0.3429,-0.3423,-0.341,-0.3399,-0.3359,-0.3302,-0.3347,-0.3343,-0.3332,-0.3249,-0.3229,-0.3222,-0.3161,-0.3184,-0.318,-0.3178,-0.3176,-0.3079,-0.3079,0,0,0,0,0,0,-0.3552,-0.3534,-0.3426,-0.342,-0.3479,-0.3407,-0.3395,-0.3371,-0.3303,-0.3292,-0.3332,-0.333,-0.3236,-0.3227,-0.3218,-0.3184,-0.3179,-0.3176,-0.3173,-0.3079,-0.3079,-0.3079,0,0,0,0,0,0,-0.3556,-0.3543,-0.343,-0.3476,-0.346,-0.3405,-0.3379,-0.3369,-0.3349,-0.3291,-0.3281,-0.3322,-0.3235,-0.3224,-0.3184,-0.318,-0.3174,-0.317,-0.3079,-0.3079,-0.3079,-0.3118,0,0,0,0,0,0,-0.356,-0.3545,-0.3535,-0.3476,-0.3458,-0.3399,-0.3379,-0.3367,-0.3343,-0.3339,-0.3279,-0.3269,-0.3234,-0.3191,-0.318,-0.3174,-0.3167,-0.3079,-0.3079,-0.3079,-0.3117,-0.3119,-0.3121,0,0,0,0,0,-0.3565,-0.3548,-0.3535,-0.3522,-0.3445,-0.3398,-0.3388,-0.3349,-0.3343,-0.3332,-0.3295,-0.3271,-0.3183,-0.3187,-0.3175,-0.3168,-0.3079,-0.3079,-0.3079,-0.3116,-0.3119,-0.3121,0,0,0,0,0,0,-0.3607,-0.354,-0.3524,-0.3487,-0.3449,-0.339,-0.3375,-0.3353,-0.3315,-0.3313,-0.3266,-0.3253,-0.3218,-0.3189,-0.3195,-0.314,-0.3129,-0.3126,-0.3161,-0.3163,-0.3165,-0.3173,-0.3163,0,0,0,0,0,-0.3612,-0.3581,-0.3524,-0.3497,-0.3479,-0.3431,-0.3409,-0.3383,-0.3341,-0.3324,-0.3284,-0.3244,-0.3207,-0.3183,-0.3146,-0.3113,-0.3099,-0.3102,-0.3104,-0.3106,-0.3104,-0.3085,-0.3086,-0.3079,-0.3079,-0.3079,0,0,-0.3621,-0.3581,-0.3564,-0.3505,-0.3472,-0.3441,-0.3417,-0.3385,-0.3361,-0.3319,-0.328,-0.3249,-0.3201,-0.3165,-0.3147,-0.314,-0.3104,-0.3106,-0.3108,-0.3105,-0.3085,-0.3086,-0.3087,-0.3079,-0.3079,-0.3079,0,0,-0.3623,-0.359,-0.3564,-0.3533,-0.3484,-0.3453,-0.3447,-0.3392,-0.337,-0.3331,-0.3299,-0.327,-0.3207,-0.3174,-0.315,-0.3142,-0.3119,-0.3131,-0.3142,-0.3125,-0.3125,-0.3126,-0.3123,-0.3123,-0.313,-0.313,-0.313,0,-0.3641,-0.3593,-0.3554,-0.3523,-0.3498,-0.3461,-0.3435,-0.3406,-0.3348,-0.3331,-0.3324,-0.3246,-0.3211,-0.3167,-0.3166,-0.3147,-0.3139,-0.3137,-0.3129,-0.3129,-0.3128,-0.3125,-0.3125,-0.3132,-0.3131,-0.3131,-0.3131,0,-0.3617,-0.3585,-0.357,-0.3516,-0.349,-0.3462,-0.3419,-0.3396,-0.3373,-0.3343,-0.3303,-0.326,-0.3214,-0.3202,-0.3178,-0.3156,-0.3153,-0.3138,-0.3125,-0.3132,-0.3128,-0.3127,-0.3134,-0.3134,-0.3133,-0.3133,0,0,-0.364,-0.3567,-0.3562,-0.3538,-0.3483,-0.3457,-0.3428,-0.3385,-0.3367,-0.3328,-0.3303,-0.3252,-0.3239,-0.3211,-0.3183,-0.3168,-0.3165,-0.3155,-0.3153,-0.3158,-0.3139,-0.315,-0.3149,-0.315,-0.315,-0.315,-0.3143,0,-0.3634,-0.358,-0.3546,-0.3506,-0.3476,-0.3441,-0.3416,-0.338,-0.3351,-0.3321,-0.3288,-0.3253,-0.3238,-0.3221,-0.3205,-0.3169,-0.3161,-0.3169,-0.3126,-0.3125,-0.3138,-0.3147,-0.3159,-0.3154,-0.3141,-0.3141,-0.3141,0,-0.3618,-0.3583,-0.3541,-0.3491,-0.3477,-0.3455,-0.3414,-0.3385,-0.3344,-0.3324,-0.3295,-0.3267,-0.3235,-0.3226,-0.3182,-0.3188,-0.3169,-0.3149,-0.3148,-0.3142,-0.3133,-0.3141,-0.3152,-0.3151,-0.3138,-0.3138,-0.3139,0,-0.364,-0.3581,-0.3549,-0.3529,-0.347,-0.3456,-0.343,-0.3389,-0.3366,-0.3329,-0.3314,-0.3274,-0.3252,-0.3222,-0.3185,-0.3182,-0.3144,-0.3132,-0.3127,-0.3128,-0.3119,-0.312,-0.3126,-0.3107,-0.3107,-0.3108,-0.3108,0,-0.3636,-0.3611,-0.3558,-0.3538,-0.351,-0.3471,-0.3444,-0.3416,-0.338,-0.3353,-0.3321,-0.3297,-0.325,-0.322,-0.3191,-0.3159,-0.3149,-0.3132,-0.3124,-0.3134,-0.3137,-0.312,-0.3119,-0.3107,-0.3107,-0.3107,-0.3107,0,-0.3654,-0.3617,-0.358,-0.3528,-0.3514,-0.3496,-0.3451,-0.3431,-0.3402,-0.3369,-0.3359,-0.3312,-0.3276,-0.3237,-0.3186,-0.3167,-0.3137,-0.3126,-0.3151,-0.3147,-0.3144,-0.3145,-0.3139,-0.3137,-0.312,-0.312,-0.3121,0,-0.3654,-0.3634,-0.3581,-0.3562,-0.3538,-0.3508,-0.3485,-0.3446,-0.3423,-0.3376,-0.3361,-0.3323,-0.329,-0.3234,-0.3195,-0.3157,-0.3145,-0.3146,-0.3139,-0.315,-0.3145,-0.3146,-0.3145,-0.3147,-0.3148,-0.3148,-0.3148,0,-0.3657,-0.3641,-0.3609,-0.3572,-0.3545,-0.3514,-0.3481,-0.3467,-0.3421,-0.3397,-0.3361,-0.3336,-0.3286,-0.3249,-0.3207,-0.318,-0.3157,-0.3151,-0.3148,-0.3158,-0.3173,-0.3165,-0.3156,-0.3151,-0.3151,-0.3151,-0.3151,-0.315,-0.3666,-0.3648,-0.3608,-0.3574,-0.3546,-0.3517,-0.3495,-0.3464,-0.3434,-0.3391,-0.337,-0.3334,-0.3294,-0.3236,-0.321,-0.3181,-0.3174,-0.3169,-0.3167,-0.3167,-0.317,-0.3179,-0.3173,-0.3173,-0.3173,-0.3173,-0.3173,0,-0.3668,-0.3641,-0.3611,-0.3567,-0.3541,-0.3523,-0.3486,-0.3465,-0.3434,-0.34,-0.3369,-0.3328,-0.3292,-0.3252,-0.3214,-0.3199,-0.3187,-0.319,-0.319,-0.3185,-0.3178,-0.3185,-0.32,-0.32,-0.32,-0.32,-0.32,-0.32,-0.3666,-0.3635,-0.3614,-0.3569,-0.3542,-0.3507,-0.3488,-0.3461,-0.3433,-0.3389,-0.336,-0.3335,-0.3298,-0.3258,-0.3224,-0.3213,-0.3201,-0.3206,-0.3193,-0.3187,-0.3185,-0.3183,-0.3189,-0.3204,-0.3204,-0.3201,-0.3201,-0.3201]},{"header":{"parameterUnit":"m.s-1","parameterCategory":1,"la1":30.2991,"la2":30.254,"lo1":-89.0895,"lo2":-89.0444,"dy":0.0017,"dx":0.0017,"nx":28,"ny":28,"refTime":"2025-06-20T09:00:00:Z","depth":0,"parameterNumber":3,"parameterNumberName":"V-component_of_WINDS"},"data":[0,0,0,0,0,0,0,0,0,0,0,0,0,0,0,0,0,0,0,0,0,0,0,0,0,0,0,0,0,0,0,0,0,0,0,0,0,0,0,0,0,0,0,0,0,0,0,0,0,0,0,0,0,0,0,0,0,0,2.9685,2.9685,0,2.9669,2.9669,2.9669,2.9702,2.9703,2.9704,2.9705,2.9683,2.9681,2.968,0,0,0,0,0,0,0,0,0,0,0,0,0,2.9737,2.9736,2.9685,2.9685,2.9685,2.9669,2.9669,2.9669,2.9702,2.9703,2.9704,2.9705,2.9683,2.9681,2.968,0,0,0,0,0,0,0,0,0,0,0,0,0,2.9717,2.9736,2.9685,2.9699,2.97,2.967,2.9669,2.9669,2.9701,2.9703,2.9705,2.9706,2.9684,2.9682,2.9679,2.9632,0,0,2.9672,2.9671,0,0,0,0,0,0,0,0,2.9718,2.9715,2.9697,2.9698,2.9699,2.9689,2.968,2.9656,2.9701,2.9701,2.9705,2.9707,2.9683,2.9681,2.9674,2.9631,2.963,2.9672,2.967,2.9669,2.9669,0,0,0,0,0,0,0,2.972,2.9716,2.9679,2.9697,2.9698,2.9704,2.9703,2.9675,2.9683,2.9701,2.9703,2.9701,2.9684,2.9677,2.9674,2.963,2.9672,2.967,2.9668,2.9667,2.9546,2.9544,0,0,0,0,0,0,2.972,2.9717,2.9679,2.9678,2.9713,2.9702,2.9701,2.9691,2.9683,2.9684,2.97,2.9703,2.968,2.9677,2.9673,2.9617,2.9669,2.9667,2.9666,2.9548,2.9546,2.9544,0,0,0,0,0,0,2.9721,2.9716,2.968,2.9698,2.9694,2.97,2.9688,2.969,2.9682,2.9683,2.9684,2.9691,2.9681,2.9677,2.9642,2.9617,2.9666,2.9664,2.955,2.9547,2.9545,2.9504,0,0,0,0,0,0,2.9722,2.9717,2.97,2.9698,2.9693,2.9651,2.9686,2.9688,2.9679,2.9682,2.9675,2.9675,2.9682,2.9646,2.964,2.9614,2.9662,2.9552,2.9549,2.9546,2.9508,2.9501,2.9494,0,0,0,0,0,2.9724,2.9688,2.9699,2.9694,2.9673,2.9649,2.9646,2.9657,2.9677,2.9659,2.9659,2.9675,2.9621,2.9642,2.9636,2.9609,2.9554,2.955,2.9546,2.9511,2.9502,2.9494,0,0,0,0,0,0,2.9685,2.9688,2.97,2.9662,2.9656,2.9655,2.9633,2.9647,2.9633,2.9636,2.9648,2.9646,2.9609,2.9606,2.9629,2.9563,2.959,2.9585,2.9566,2.9558,2.9551,2.9552,2.966,0,0,0,0,0,2.9672,2.9654,2.9657,2.9624,2.962,2.9627,2.9617,2.9626,2.9618,2.9615,2.9613,2.9603,2.9584,2.9571,2.9553,2.9508,2.9506,2.9486,2.948,2.9474,2.9469,2.9444,2.9435,2.9531,2.9531,2.9531,0,0,2.9645,2.9644,2.9632,2.9616,2.9612,2.9591,2.9624,2.9601,2.9586,2.9611,2.9579,2.9577,2.9566,2.9527,2.9509,2.9522,2.9442,2.9469,2.9465,2.9462,2.9439,2.9429,2.9421,2.9528,2.9528,2.9529,0,0,2.9585,2.9583,2.9555,2.955,2.9544,2.9549,2.9543,2.954,2.954,2.9509,2.9527,2.9508,2.9474,2.9466,2.9458,2.9395,2.9409,2.9389,2.9353,2.9328,2.9321,2.9314,2.9291,2.9282,2.9384,2.9384,2.9384,0,2.9551,2.9523,2.9538,2.9514,2.9506,2.953,2.95,2.9495,2.9482,2.9475,2.9491,2.945,2.9445,2.9403,2.9388,2.9381,2.9372,2.9389,2.9321,2.9315,2.9309,2.9286,2.9277,2.9382,2.9382,2.9382,2.9382,0,2.9481,2.9461,2.9439,2.9429,2.9418,2.9391,2.94,2.9387,2.9397,2.94,2.9367,2.9362,2.9344,2.9335,2.9343,2.9294,2.9302,2.932,2.9348,2.9297,2.9276,2.9268,2.9378,2.9379,2.938,2.938,0,0,2.9394,2.9394,2.9385,2.938,2.9376,2.936,2.9334,2.9318,2.9306,2.9296,2.9274,2.9246,2.9262,2.9252,2.926,2.9239,2.9188,2.9259,2.9259,2.9245,2.9132,2.9118,2.9108,2.9198,2.9197,2.9195,2.9132,0,2.9334,2.9291,2.9304,2.926,2.9242,2.9265,2.9242,2.9235,2.9237,2.922,2.9222,2.9201,2.9225,2.9219,2.9199,2.9199,2.9166,2.9204,2.9175,2.9174,2.9176,2.9097,2.9083,2.9023,2.9124,2.9123,2.9122,0,2.9258,2.9248,2.9202,2.9201,2.9194,2.9173,2.9159,2.9144,2.9136,2.9139,2.9129,2.9141,2.9114,2.9143,2.9104,2.913,2.9119,2.9117,2.9115,2.9111,2.9144,2.909,2.9005,2.8995,2.911,2.9111,2.9112,0,2.9197,2.9172,2.9142,2.9138,2.9136,2.912,2.9118,2.9113,2.9103,2.909,2.9083,2.9067,2.9057,2.9044,2.9051,2.9072,2.901,2.904,2.901,2.9009,2.8994,2.8995,2.8904,2.8989,2.8989,2.899,2.899,0,2.9128,2.9099,2.9115,2.9096,2.9064,2.9079,2.9046,2.9046,2.9041,2.9022,2.904,2.9021,2.9032,2.9013,2.9018,2.8984,2.898,2.898,2.8982,2.8978,2.8978,2.897,2.8973,2.8987,2.8988,2.8988,2.8989,0,2.9055,2.9065,2.9033,2.9034,2.9034,2.901,2.901,2.8992,2.8996,2.897,2.8965,2.8971,2.8949,2.8956,2.8932,2.8935,2.8892,2.8899,2.8895,2.8896,2.8865,2.8868,2.8765,2.8752,2.8847,2.8846,2.8845,0,2.9009,2.8988,2.8987,2.8977,2.8974,2.8956,2.8946,2.896,2.8948,2.8939,2.8921,2.8902,2.8887,2.8851,2.8852,2.8833,2.8839,2.8805,2.8836,2.8833,2.8837,2.8838,2.8835,2.8798,2.8797,2.8796,2.8795,0,2.8927,2.8933,2.8919,2.8907,2.8895,2.8885,2.8877,2.8867,2.888,2.8865,2.8845,2.8834,2.8811,2.879,2.8774,2.877,2.8784,2.8786,2.8777,2.8773,2.8771,2.877,2.8877,2.8787,2.8788,2.8789,2.8789,2.879,2.8865,2.8847,2.8844,2.8828,2.8824,2.8816,2.8799,2.8802,2.8786,2.8769,2.8778,2.8754,2.8746,2.8726,2.872,2.87,2.8713,2.8701,2.8698,2.8694,2.869,2.8775,2.8697,2.8697,2.8697,2.8697,2.8698,0,2.8782,2.8782,2.8768,2.8757,2.8743,2.8761,2.8753,2.874,2.8719,2.8713,2.8698,2.8674,2.8655,2.8655,2.8636,2.862,2.8626,2.8615,2.8615,2.8614,2.868,2.8689,2.8611,2.8611,2.8611,2.8611,2.8611,2.8611,2.8738,2.8708,2.8714,2.8682,2.8682,2.866,2.8654,2.8646,2.8641,2.8614,2.8599,2.86,2.8595,2.8577,2.8559,2.856,2.8551,2.8537,2.854,2.8601,2.8609,2.8618,2.8626,2.8536,2.8536,2.8475,2.8475,2.8474]}]]